Ostrava, Czech Republic

11:42 PM CEST on May 22, 2017 (GMT +0200)
Mosnov

Weather History for LKMT - October, 2013

Change the Weather History Date:

Thursday, October 10, 2013

  Actual Average Record
Temperature  
Mean Temperature 56 °F -  
Max Temperature 63 °F 53 °F - ()
Min Temperature 50 °F 38 °F - ()
Degree Days  
Heating Degree Days 8    
Growing Degree Days 6 (Base 50)    
Moisture  
Dew Point 48 °F    
Average Humidity 73    
Maximum Humidity 88    
Minimum Humidity 50    
Precipitation  
Precipitation 0.00 in 0.06 in - ()
Sea Level Pressure  
Sea Level Pressure 29.85 in    
Wind  
Wind Speed 8 mph ()    
Max Wind Speed 15 mph    
Max Gust Speed -    
Visibility 5.7 miles    
Events Rain    
T = Trace of Precipitation, MM = Missing Value Source: Averaged Metar Reports

Daily Weather History Graph

Daily Weather History Graph

Search for Another Location

Airport or City:

Trip Planner

Search our weather history database for the weather conditions in past years. The results will help you decide how hot, cold, wet, or windy it might be!

Date:

Astronomy

Oct. 10, 2013 Rise Set
Actual Time 7:01 AM CEST 6:06 PM CEST
Civil Twilight 6:28 AM CEST 6:39 PM CEST
Nautical Twilight 5:51 AM CEST 7:16 PM CEST
Astronomical Twilight 5:14 AM CEST 7:53 PM CEST
Moon 12:58 PM CEST (10/10) 10:04 PM CEST (10/10)
Length of Visible Light 12h 10m
Length of Day
11h 05m
Waxing Crescent, 33% of the Moon is Illuminated
Oct 10
Waxing Crescent
Oct 12
First Quarter
Oct 19
Full
Oct 27
Last Quarter
Nov 3
New

Hourly Weather History & Observations

Time (CEST) Temp. Dew Point Humidity Pressure Visibility Wind Dir Wind Speed Gust Speed Precip Events Conditions
12:00 AM 55.4 °F 50.0 °F 82% 29.95 in 4.3 mi SSW 10.4 mph - N/A   Overcast
12:30 AM 53.6 °F 50.0 °F 88% 29.95 in 4.3 mi SW 8.1 mph - N/A Rain Light Rain
1:00 AM 53.6 °F 48.2 °F 82% 29.95 in 5.6 mi SW 8.1 mph - N/A   Overcast
1:30 AM 55.4 °F 46.4 °F 72% 29.95 in 6.2 mi SSW 10.4 mph - N/A   Mostly Cloudy
2:00 AM 54 °F 45 °F 63% 29.94 in 7 mi SW 8.9 mph - -   Partly Cloudy
2:00 AM 53.6 °F 46.4 °F 77% 29.92 in 6.2 mi SSW 9.2 mph - N/A   Overcast
2:30 AM 53.6 °F 46.4 °F 77% 29.92 in 6.2 mi WSW 11.5 mph - N/A   Overcast
3:00 AM 53.6 °F 48.2 °F 82% 29.92 in 4.3 mi WSW 11.5 mph - N/A Rain Light Rain
3:30 AM 51.8 °F 48.2 °F 88% 29.92 in 3.7 mi WSW 11.5 mph - N/A   Overcast
4:00 AM 51.8 °F 48.2 °F 88% 29.89 in 5.0 mi SW 6.9 mph - N/A Rain Light Rain
4:30 AM 51.8 °F 48.2 °F 88% 29.89 in 5.0 mi SW 6.9 mph - N/A   Mostly Cloudy
5:00 AM 53.6 °F 46.4 °F 77% 29.89 in 6.2 mi SW 6.9 mph - N/A   Partly Cloudy
5:30 AM 53.6 °F 46.4 °F 77% 29.89 in 6.2 mi SSW 8.1 mph - N/A   Partly Cloudy
6:00 AM 51.8 °F 46.4 °F 82% 29.86 in 6.2 mi SW 5.8 mph - N/A   Partly Cloudy
6:30 AM 51.8 °F 46.4 °F 82% 29.86 in 6.2 mi WSW 5.8 mph - N/A   Mostly Cloudy
7:00 AM 53.6 °F 46.4 °F 77% 29.86 in 6.2 mi SSW 11.5 mph - N/A   Overcast
7:30 AM 53.6 °F 46.4 °F 77% 29.86 in 6.2 mi SSW 11.5 mph - N/A   Overcast
8:00 AM 54 °F 46 °F 67% 29.87 in 5 mi SSW 11.2 mph - -   Mist
8:00 AM 53.6 °F 46.4 °F 77% 29.86 in 5.0 mi SSW 10.4 mph - N/A   Mostly Cloudy
8:30 AM 53.6 °F 46.4 °F 77% 29.86 in 4.3 mi SSW 10.4 mph - N/A   Mostly Cloudy
9:00 AM 55.4 °F 48.2 °F 77% 29.86 in 4.3 mi SSW 8.1 mph - N/A   Mostly Cloudy
9:30 AM 55.4 °F 48.2 °F 77% 29.86 in 4.3 mi SSW 6.9 mph - N/A   Overcast
10:00 AM 57.2 °F 48.2 °F 72% 29.86 in 4.3 mi SW 6.9 mph - N/A   Mostly Cloudy
10:30 AM 59.0 °F 48.2 °F 67% 29.83 in 5.0 mi WSW 5.8 mph - N/A   Mostly Cloudy
11:00 AM 59.0 °F 48.2 °F 67% 29.83 in 5.0 mi SW 12.7 mph - N/A   Partly Cloudy
11:30 AM 59.0 °F 50.0 °F 72% 29.83 in 5.6 mi SSW 12.7 mph - N/A   Scattered Clouds
12:00 PM 59.0 °F 48.2 °F 67% 29.83 in 5.6 mi SSW 15.0 mph - N/A   Mostly Cloudy
12:30 PM 60.8 °F 50.0 °F 68% 29.83 in 5.6 mi SSW 10.4 mph - N/A   Mostly Cloudy
1:00 PM 59.0 °F 48.2 °F 67% 29.83 in 5.6 mi SSW 11.5 mph - N/A   Mostly Cloudy
1:30 PM 62.6 °F 50.0 °F 63% 29.83 in 5.6 mi South 10.4 mph - N/A   Mostly Cloudy
2:00 PM 62 °F 48 °F 50% 29.81 in 7 mi South 8.9 mph - -   Partly Cloudy
2:00 PM 62.6 °F 48.2 °F 59% 29.80 in 6.2 mi South 9.2 mph - N/A   Scattered Clouds
2:30 PM 60.8 °F 48.2 °F 63% 29.80 in 6.2 mi South 5.8 mph - N/A   Partly Cloudy
3:00 PM 62.6 °F 48.2 °F 59% 29.80 in 6.2 mi South 6.9 mph - N/A   Scattered Clouds
3:30 PM 62.6 °F 48.2 °F 59% 29.80 in 6.2 mi South 8.1 mph - N/A   Scattered Clouds
4:00 PM 62.6 °F 48.2 °F 59% 29.80 in - South 6.9 mph - N/A   Clear
4:30 PM 60.8 °F 48.2 °F 63% 29.80 in 6.2 mi SW 5.8 mph - N/A   Scattered Clouds
5:00 PM 59.0 °F 48.2 °F 67% 29.80 in 6.2 mi SW 6.9 mph - N/A   Mostly Cloudy
5:30 PM 57.2 °F 50.0 °F 77% 29.80 in 6.2 mi WSW 6.9 mph - N/A   Mostly Cloudy
6:00 PM 59.0 °F 48.2 °F 67% 29.80 in 6.2 mi SSW 6.9 mph - N/A   Mostly Cloudy
6:30 PM 59.0 °F 48.2 °F 67% 29.80 in 6.2 mi SE 3.5 mph - N/A   Mostly Cloudy
7:00 PM 59.0 °F 48.2 °F 67% 29.80 in 6.2 mi Variable 2.3 mph - N/A   Mostly Cloudy
7:30 PM 59.0 °F 48.2 °F 67% 29.83 in 6.2 mi East 2.3 mph - N/A   Mostly Cloudy
8:00 PM 56 °F 48 °F 66% 29.83 in 6 mi East 4.5 mph - -   Mostly Cloudy
8:00 PM 57.2 °F 48.2 °F 72% 29.83 in 6.2 mi East 3.5 mph - N/A   Mostly Cloudy
8:30 PM 57.2 °F 48.2 °F 72% 29.83 in 6.2 mi ESE 3.5 mph - N/A   Scattered Clouds
9:00 PM 57.2 °F 46.4 °F 67% 29.83 in - SSE 3.5 mph - N/A   Clear
9:30 PM 55.4 °F 48.2 °F 77% 29.83 in 6.2 mi Variable 1.2 mph - N/A   Partly Cloudy
10:00 PM 55.4 °F 48.2 °F 77% 29.83 in 6.2 mi NNW 4.6 mph - N/A   Scattered Clouds
10:30 PM 55.4 °F 48.2 °F 77% 29.86 in 6.2 mi Calm Calm - N/A   Partly Cloudy
11:00 PM 53.6 °F 48.2 °F 82% 29.86 in - NE 3.5 mph - N/A   Clear
11:30 PM 53.6 °F 48.2 °F 82% 29.86 in - Variable 2.3 mph - N/A   Clear